www.pogodaiklimat.ru

Погода и климат >> Архив погоды >> Марокко >> Тан-Тан


ПОГОДА в Тан-Тане

  • Прогноз погоды в Тан-Тане
  • Монитор погоды в Тан-Тане

АРХИВ ПОГОДЫ в Тан-Тане

Время (UTC), дата Ветер
(напр.,м/с)
 
Видим.   Явления Облачность Т
(С)
Тd
(С)
f
(%)
Тe
(С)
Тes
(С)
Комфортность P
(гПа)
Po
(гПа)
Тmin
(С)
Tmax
(С)
R
(мм)
R24
(мм)
S
(см)
15 12.06 С 19-21
{26}
8000 м 9/9 480 м
[Sc]
+19.8 +12.5 63 +20 +20 1011.8 988.7
18 12.06 В 19-24
{26}
8000 м 8/8 480 м
[Sc]
+18.6 +12.1 66 +17 +17 1011.4 988.3 +21.0
06 13.06 С 12-14
{15}
6000 м 10/10 480 м
[Sc]
+16.6 +15.0 90 +15 +15 1012.5 989.4 +15.9
09 13.06 С 16-17
{25}
6000 м 8/8 480 м
[Sc]
+19.0 +14.0 73 +19 +19 1014.3 991.1
12 13.06 С 16-19
{22}
8000 м 10/10 480 м
[Sc]
+20.2 +13.0 63 +21 +21 комфорт 1015.6 992.4
15 13.06 С 17-19
{20}
8000 м 8/8 480 м
[Sc]
+21.8 +12.3 55 +24 +24 комфорт 1015.8 992.6
18 13.06 С 16-19
{20}
6000 м 6/6 480 м
[Sc]
+19.4 +12.6 65 +19 +19 1016.1 992.9 +22.1
06 14.06 С 10-10
{12}
8000 м 4/4 480 м
[Sc]
+13.6 +12.5 93 +10 +10 1017.4 994.2 +13.6 0.2
09 14.06 С 12-12
{14}
10 км 5/5 480 м
[Sc]
+17.8 +12.1 69 +16 +16 1018.9 995.7
12 14.06 С 12-12
{14}
10 км 8/8 480 м
[Sc]
+21.5 +11.0 51 +23 +23 комфорт 1019.4 996.2
15 14.06 С 12-14
{16}
10 км 4/4 480 м
[Sc]
+21.9 +10.5 48 +24 +24 комфорт 1018.5 995.2
18 14.06 С 14-16
{18}
10 км 1/1 480 м
[Sc]
+20.0 +11.6 58 +20 +20 1018.0 994.8 +22.2
06 15.06 С 14-16
{18}
8000 м 9/9 480 м
[Sc]
+16.1 +13.4 84 +14 +14 1018.9 995.6 +15.1
09 15.06 С 14-16
{18}
8000 м 9/9 480 м
[Sc]
+18.6 +12.3 67 +18 +18 1019.2 996.0
12 15.06 С 14-16
{18}
8000 м 3/3 480 м
[Sc]
+21.3 +12.3 56 +23 +23 комфорт 1018.9 995.7
15 15.06 С 14-16
{18}
8000 м 1/1 480 м
[Sc]
+21.5 +12.4 56 +24 +24 комфорт 1018.4 995.2
18 15.06 С 16-18
{22}
8000 м 1/1 480 м
[Sc]
+20.1 +11.6 58 +21 +21 комфорт 1018.2 995.0 +22.3
06 16.06 СВ 14-15
{16}
6000 м 8/8 480 м
[Sc]
+16.7 +13.8 83 +15 +15 1019.1 995.8 +16.0
09 16.06 С 11-12
{15}
6000 м 8/8 480 м
[Sc]
+18.7 +12.9 69 +18 +18 1020.3 997.2
12 16.06 С 12-16
{22}
8000 м 8/8 480 м
[Sc]
+21.6 +12.4 56 +24 +24 комфорт 1020.8 997.7
15 16.06 С 14-16
{18}
8000 м 4/4 480 м
[Sc]
+22.0 +12.8 56 +25 +25 комфорт 1019.5 996.3
18 16.06 С 16-18
{22}
8000 м 1/1 480 м
[Sc]
+20.2 +12.7 62 +21 +21 комфорт 1019.2 996.0 +22.7
06 17.06 С 4-5
{6}
6000 м 6/6 600 м
[Sc]
+14.7 +13.5 93 +13 +13 1018.4 995.2 +14.5
09 17.06 С 10-12
{15}
10 км 9/9 480 м
[Sc]
+18.5 +12.7 69 +18 +18 1019.4 996.2
12 17.06 С 11-13
{16}
10 км ясно +22.0 +11.8 52 +24 +24 комфорт 1019.1 995.8
15 17.06 С 14-16
{19}
10 км ясно +22.4 +15.0 63 +26 +26 жарко 1018.0 994.8
18 17.06 С 15-18
{22}
10 км ясно +20.2 +12.5 61 +21 +21 комфорт 1018.0 994.8 +23.1
06 18.06 С 10-12
{14}
8000 м 9/9 480 м
[Sc]
+16.0 +13.3 84 +14 +14 1017.2 994.0 +15.0
09 18.06 С 14-16
{18}
10 км 6/6 480 м
[Sc]
+19.6 +12.8 65 +20 +20 1018.0 994.8
12 18.06 С 16-18
{22}
10 км 1/1 480 м
[Sc]
+22.0 +13.2 57 +25 +25 комфорт 1018.5 995.3
15 18.06 С 18-20
{22}
10 км 1/1 480 м
[Sc]
+22.6 +14.1 59 +26 +26 жарко 1017.9 994.7
18 18.06 С 16-18
{22}
10 км 3/0
[Ci sp]
+21.6 +14.7 65 +25 +25 комфорт 1017.4 994.2 +23.3
06 19.06 С 8-10
{14}
8000 м 10/10 600 м
[Sc]
+18.5 +16.3 87 +18 +18 1017.3 994.1 +18.3
09 19.06 С 10-12
{14}
10 км 9/9 480 м
[Sc]
+20.1 +15.8 76 +22 +22 комфорт 1018.6 995.3
12 19.06 С 14-14
{18}
10 км 6/6 480 м
[Sc]
+23.5 +14.3 56 +26 +26 жарко 1019.3 996.0

 

Местоположение метеостанции Тан-Тан (Марокко): широта 28.45 долгота -11.15 высота над уровнем моря 204 м.

В архиве по умолчанию представлена погода в Тан-Тане за последнюю неделю. Архивные данные за месяц целиком и за предыдущие месяцы, начиная с января 2011 года, Вы можете получить, выбрав интересующий диапазон дат из раскрывающегося списка и нажав кнопку "Ввод!".


*Определитесь, кто Вы:
робот инопланетянин человек

Внимание! Время в таблицах - всемирное. Для получения местного времени необходимо прибавить поправку, которая равна 0 ч.

Смотрите также архив погоды в соседних городах и на ближайших метеорологических станциях:

Погода в Гулимине (Марокко) (125 км)
Погода в Сиди-Ифни (Марокко) (139 км)
Погода в Тизните (Марокко) (194 км)
Погода в Аэропорту Лансароте (Канарские Острова) (245 км)
Погода в Агадире (Марокко) (264 км)
Погода в Аэропорту Фуэртевентура (Канарские Острова) (265 км)
Погода в Агадире (Марокко) (268 км)
Погода в Тиндуфе (Алжир) (304 км)
Погода в Морро Хабле (Канарские Острова) (318 км)
Погода в Таруданте (Марокко) (321 км)

Пояснения к столбцам:

Ветер - указаны скорость ветра в м/с - средняя за 10 мин, порывы в срок и между сроками (в фигурных скобках) и направление, откуда дует ветер: С - северный, СВ - северо-восточный, В - восточный, ЮВ - юго-восточный, Ю - южный, ЮЗ - юго-западный, З - западный, СЗ - северо-западный.
Видимость - горизонтальная дальность видимости в метрах или километрах. При видимости от 1 до 10 км при отсутствии осадков обычно наблюдается дымка, при ухудшении видимости до 1 км и менее - туман. В сухую погоду видимость может ухудшаться дымом, пылью или мглою.
Явления - указаны атмосферные явления, наблюдавшиеся в срок или в последний час перед сроком; фигурными скобками обозначены явления, наблюдавшиеся между сроками (за 1-3 часа до срока); квадратными скобками обозначены град или гололедные отложения с указанием их диаметра в мм.
Облачность - указаны через наклонную черту общая и нижняя облачность в баллах и высота нижней границы облаков в метрах; квадратными скобками обозначены формы облаков: Ci - перистые, Cs - перисто-слоистые, Cc - перисто-кучевые, Ac - высококучевые, As - высокослоистые, Sc - слоисто-кучевые, Ns - слоисто-дождевые, Cu - кучевые, Cb - кучево-дождевые. Подробнее классификацию облаков см. в Атласе облаков (PDF).
T - Температура воздуха - температура, измеренная на высоте 2 м над землей.
Td - Температура точки росы - температура, при понижении до которой содержащийся в воздухе водяной пар достигнет насыщения.
f - Относительная влажность воздуха - влажноcть воздуха, измеренная на высоте 2 м над землей.
Te - Эффективная температура - температура, которую ощущает одетый по сезону человек в тени. Характеристика душности погоды. При расчете учитывается влияние влажности воздуха и скорости ветра на теплоощущения человека.
Tes - Эффективная температура на солнце - температура, которую ощущает человек, с поправкой на солнечный нагрев. Характеристика знойности погоды. Зависит от высоты солнца над горизонтом, облачности и скорости ветра. Ночью, в пасмурную погоду, а также при ветре 12 м/с и более поправка равна нулю.
P - Атмосферное давление - приведенное к уровню моря атмосферное давление.
Po - Атмосферное давление - измеренное на уровне метеостанции атмосферное давление.
Tmin - Минимальная температура - минимум температуры воздуха на высоте 2 м над землей.
Tmax - Максимальная температура - максимум температуры воздуха на высоте 2 м над землей.
R - Количество осадков - Количество выпавших осадков за период времени, мм. При наведении курсора мыши на число - период времени, за который выпало указанное количество осадков.
R24 - Количество осадков - Количество выпавших осадков за 24 часа, мм.
S - Снежный покров - Высота снежного покрова, см. При наведении курсора мыши на число - состояние снежного покрова и степень покрытия местности в баллах.